User: anonymous   Login
Location: Congrier
(47.8099°N, 1.1170°W)
Time: 21:19:17
(UTC+00:00)
Language:

CZ-6A DEB - Orbit

View from above orbital plane
View from above orbital plane
View from above satellite
View from above satellite

Ground track
Ground track

The orbit data is extracted from the following two-line orbital elements,

1 56276U 22151ACU 24057.01931015  .00001383  00000-0  69460-3 0  9998
2 56276  98.8032  67.7165 0009269 204.6345 155.4389 14.18138570 48724
Epoch (UTC): 26 February 2024 00:27:48
Eccentricity: 0.0009269
inclination: 98.8032°
perigee height: 825 km
apogee height: 838 km
right ascension of ascending node: 67.7165°
argument of perigee: 204.6345°
revolutions per day: 14.18138570
mean anomaly at epoch: 155.4389°
orbit number at epoch: 4872

The dashed part of the orbit path shows where the satellite is in the earth's shadow,  

DLR